TimeAKDT,TemperatureF,Dew PointF,Humidity,Sea Level PressureIn,VisibilityMPH,Wind Direction,Wind SpeedMPH,Gust SpeedMPH,PrecipitationIn,Events,Conditions,WindDirDegrees,DateUTC
12:53 AM,45.0,42.1,90,29.75,10.0,SSE,10.4,-,0.00,,Overcast,150,2013-10-06 08:53:00
1:53 AM,46.9,39.9,77,29.75,10.0,East,9.2,21.9,N/A,,Overcast,90,2013-10-06 09:53:00
2:53 AM,46.9,39.0,74,29.74,10.0,East,10.4,-,N/A,,Overcast,100,2013-10-06 10:53:00
3:28 AM,46.0,39.9,79,29.75,10.0,Variable,6.9,18.4,N/A,,Overcast,0,2013-10-06 11:28:00
3:53 AM,45.0,41.0,86,29.75,10.0,Variable,6.9,-,N/A,,Overcast,0,2013-10-06 11:53:00
4:24 AM,46.0,39.9,79,29.74,10.0,ESE,9.2,-,0.00,Rain,Light Rain,110,2013-10-06 12:24:00
4:53 AM,44.1,42.1,93,29.75,10.0,Variable,5.8,-,0.00,Rain,Light Rain,0,2013-10-06 12:53:00
5:53 AM,44.1,42.1,93,29.75,10.0,Variable,4.6,-,0.00,,Overcast,0,2013-10-06 13:53:00
6:21 AM,44.1,41.0,89,29.75,10.0,SE,4.6,-,N/A,,Overcast,130,2013-10-06 14:21:00
6:53 AM,43.0,39.9,89,29.75,10.0,ESE,4.6,-,0.00,Rain,Light Rain,110,2013-10-06 14:53:00
7:53 AM,43.0,41.0,93,29.75,10.0,ESE,5.8,-,0.00,,Overcast,110,2013-10-06 15:53:00
8:53 AM,43.0,39.9,89,29.75,10.0,East,6.9,-,N/A,,Mostly Cloudy,100,2013-10-06 16:53:00
9:53 AM,45.0,39.9,82,29.74,10.0,Variable,4.6,-,N/A,,Mostly Cloudy,0,2013-10-06 17:53:00
10:53 AM,45.0,39.9,82,29.74,10.0,East,6.9,-,N/A,,Mostly Cloudy,80,2013-10-06 18:53:00
11:53 AM,46.0,39.9,79,29.74,10.0,East,5.8,-,N/A,,Overcast,80,2013-10-06 19:53:00
12:53 PM,45.0,41.0,86,29.73,10.0,East,6.9,-,0.00,Rain,Light Rain,80,2013-10-06 20:53:00
1:53 PM,46.0,41.0,83,29.72,10.0,East,6.9,-,0.00,,Overcast,100,2013-10-06 21:53:00
2:53 PM,45.0,41.0,86,29.71,10.0,East,5.8,-,0.00,Rain,Light Rain,100,2013-10-06 22:53:00
3:53 PM,45.0,41.0,86,29.70,10.0,East,3.5,-,0.00,,Overcast,100,2013-10-06 23:53:00
4:53 PM,45.0,43.0,93,29.70,10.0,Calm,Calm,-,0.00,Rain,Light Rain,0,2013-10-07 00:53:00
5:53 PM,44.1,42.1,93,29.69,10.0,West,4.6,-,0.00,,Overcast,270,2013-10-07 01:53:00
6:06 PM,44.1,42.1,93,29.68,10.0,West,4.6,-,N/A,,Overcast,280,2013-10-07 02:06:00
6:53 PM,43.0,42.1,97,29.68,10.0,West,6.9,-,N/A,,Overcast,270,2013-10-07 02:53:00
7:53 PM,42.1,42.1,100,29.69,9.0,West,8.1,-,0.00,Rain,Light Rain,270,2013-10-07 03:53:00
8:13 PM,42.1,41.0,96,29.69,10.0,West,6.9,-,0.00,,Overcast,280,2013-10-07 04:13:00
8:53 PM,42.1,41.0,96,29.70,10.0,WNW,6.9,-,0.00,,Overcast,290,2013-10-07 04:53:00
9:53 PM,41.0,39.9,96,29.70,10.0,WNW,5.8,-,0.00,,Overcast,290,2013-10-07 05:53:00
10:53 PM,41.0,39.9,96,29.70,10.0,WNW,8.1,-,N/A,,Mostly Cloudy,300,2013-10-07 06:53:00
11:53 PM,39.9,39.9,100,29.71,10.0,WNW,5.8,-,N/A,,Overcast,290,2013-10-07 07:53:00